Miscellaneous Local Product
Issued by NWS North Platte, NE

Home | Current Version | Previous Version | Text Only | Print | Product List | Glossary On
Versions: 1 2 3 4 5 6 7 8 9 10 11 12 13 14 15 16 17 18 19 20 21 22 23 24 25 26 27 28 29 30 31 32 33 34 35 36 37 38 39 40 41 42 43 44 45 46 47 48 49 50
000
AXUS43 KLBF 280210
MISLBF


WESTERN AND NORTH CENTRAL NEBRASKA HOURLY WEATHER ROUNDUP
NATIONAL WEATHER SERVICE NORTH PLATTE NE
900 PM CDT FRI MAY 27 2016

NOTE: "FAIR" INDICATES FEW OR NO CLOUDS BELOW 12,000 FEET WITH NO
SIGNIFICANT WEATHER AND/OR OBSTRUCTIONS TO VISIBILITY.

NOTE: STATIONS NOT REPORTING VARIABLES SUCH AS SKY/WEATHER OR
PRESSURE ARE PROVIDED BY RAWS AND APRS NETWORKS AND ARE NOT UNDER
NATIONAL WEATHER SERVICE QUALITY CONTROL.

...OBSERVATIONS IN AND NEAR THE EASTERN PANHANDLE OF NEBRASKA...

CITY           SKY/WX    TMP DP  RH WIND       PRES   REMARKS
PINE RIDGE     CLOUDY    57  48  72 NW5       29.83S
CHADRON        MOCLDY    57  46  66 CALM      29.84S
ALLIANCE       PTCLDY    55  46  71 CALM      29.84S
SIDNEY         CLEAR     53  48  83 N3        29.88R
CRESCENT LAKE    N/A     55  49  79 N6          N/A
BIG SPRINGS      N/A     59  52  76 NE6         N/A
$$

...OBSERVATIONS IN NORTHERN NEBRASKA AND FAR SOUTHERN SOUTH DAKOTA...

CITY           SKY/WX    TMP DP  RH WIND       PRES   REMARKS
WINNER         FAIR      63  54  72 NE6       29.77R
VALENTINE      CLEAR     62  47  57 NE6       29.80R
THEDFORD       CLOUDY    64  51  61 N7        29.79R
AINSWORTH      PTCLDY    62  50  64 N8        29.80R
O`NEILL        CLOUDY    65  57  75 N5        29.74S
ORD            TSTM      67  58  72 NE8       29.71R
BROKEN BOW     LGT RAIN  64  57  78 N8        29.73R
BUTTE            N/A     64  59  83 N5          N/A
CHAMBERS         N/A     66  57  72 N3          N/A
EWING            N/A     68  60  75 N3          N/A
$$

...OBSERVATIONS IN SOUTHWEST NEBRASKA AND FAR NORTHEAST COLORADO...

CITY           SKY/WX    TMP DP  RH WIND       PRES   REMARKS
WRAY           FAIR      52  46  82 NW5       29.82R
HOLYOKE        FAIR      54  46  76 N9        29.84R
IMPERIAL       CLOUDY    55  46  71 N13       29.79S
OGALLALA       PTCLDY    56  52  88 W5        29.82S
NORTH PLATTE   LGT RAIN  60  52  74 SW7       29.77R
MCCOOK         CLOUDY    57  50  77 NW20G29   29.77R
LEXINGTON      CLOUDY    64  58  80 CALM      29.74R
PAXTON           N/A     57  53  87 SW6         N/A
STAPLETON        N/A     62  54  74 CALM        N/A
GOTHENBURG       N/A     56  51  83 NW16        N/A
CALLAWAY         N/A     62  54  76 N8          N/A
$$

...OBSERVATIONS IN CENTRAL LINCOLN COUNTY AREA...

CITY           SKY/WX    TMP DP  RH WIND       PRES   REMARKS
N.P. AIRPORT   LGT RAIN  60  52  74 SW7       29.77R
N.P. DOWNTOWN    N/A     62  55  77 CALM        N/A
N.P. SOUTHEAST   N/A     61  54  78 S6          N/A
N.P. HILLCREST   N/A     62  54  76 E5          N/A
$$

...SOME OBSERVATIONS FROM AROUND THE REGION...

CITY           SKY/WX    TMP DP  RH WIND       PRES   REMARKS
DENVER         CLOUDY    54  41  61 W6        29.95R
LARAMIE        LGT RAIN  46  38  73 N10G21    29.98R
CHEYENNE       CLOUDY    50  41  71 SW3       29.95R
SCOTTSBLUFF    PTCLDY    57  47  69 NW3       29.86S
RAPID CITY     CLOUDY    59  49  69 S7        29.84R
BISMARCK       MOCLDY    65  51  60 E6        29.80R
PIERRE         CLEAR     60  53  77 NW9       29.75S
SIOUX FALLS    MOCLDY    66  57  72 NE7       29.72S
OMAHA          CLOUDY    73  63  70 E7        29.69S
GRAND ISLAND   TSTM      62  56  80 E22G32    29.74R
KANSAS CITY    CLOUDY    68  63  84 E3        29.74R
WICHITA        CLOUDY    64  59  83 E12       29.65S
OKLAHOMA CITY  CLOUDY    65  57  75 S12       29.71R
DALLAS         PTCLDY    72  62  71 S9        29.75R
AMARILLO       CLEAR     71  36  27 CALM      29.82R
DODGE CITY     MOCLDY    63  48  58 W8        29.66R
HAYS           CLOUDY    27 N/A N/A S22G33    29.73R THUNDER WCI  12
GOODLAND       MOCLDY    52  49  89 N14       29.79R
$$




USA.gov is the U.S. government's official web portal to all federal, state and local government web resources and services.